Location: Unspecified
(0.0000°N, 0.0000°E)
Time: 02:05:39
(UTC+00:00)

NIMBUS 2 DEB - Visible Passes

Search period start: 11 December 2025 00:00
Search period end: 21 December 2025 00:00
Orbit: 862 x 924 km, 100.1° (Epoch: 18 August)

Date Brightness Start Highest point End Pass type
(mag) Time Alt. Az. Time Alt. Az. Time Alt. Az.
11 Dec ? 04:03:13 10° NNE 04:08:40 65° ESE 04:14:08 10° S visible
12 Dec ? 03:53:59 10° NNE 03:59:17 49° ESE 04:04:36 10° S visible
13 Dec ? 03:44:51 10° NE 03:49:55 38° ESE 03:54:58 10° S visible
13 Dec ? 05:27:19 10° NW 05:30:19 15° WNW 05:33:19 10° WSW visible
14 Dec ? 03:35:49 10° NE 03:40:31 29° ESE 03:45:14 10° SSE visible
14 Dec ? 05:17:05 10° NNW 05:20:56 20° WNW 05:24:49 10° WSW visible
15 Dec ? 03:26:55 10° NE 03:31:08 23° ESE 03:35:20 10° SSE visible
15 Dec ? 05:07:05 10° NNW 05:11:32 26° WNW 05:16:01 10° SW visible
16 Dec ? 03:18:14 10° ENE 03:21:44 17° ESE 03:25:14 10° SE visible
16 Dec ? 04:57:15 10° NNW 05:02:08 33° WNW 05:07:02 10° SW visible
17 Dec ? 03:09:55 10° ENE 03:12:19 13° ESE 03:14:44 10° SE visible
17 Dec ? 04:47:32 10° N 04:52:43 43° WNW 04:57:56 10° SSW visible
18 Dec ? 04:37:54 10° N 04:43:17 56° WNW 04:48:42 10° SSW visible
19 Dec ? 04:28:22 10° N 04:33:51 74° WNW 04:39:23 10° SSW visible
20 Dec ? 04:18:54 10° NNE 04:24:25 86° ESE 04:29:57 10° SSW visible
